When you browse on this site, cookies collect data to enhance your experience and personalize the content and advertising you see.
Visit our Privacy Policy to learn more. By continuing to use the site, you agree to this use of cookies and data.
  • In United Kingdom
  • List of Countries
  • For 7 days
  • Water Temperature
  • Weather Map
  • Weather Widgets
  • user-avatar
    Login

    Hourly Weather Rostock

    Today, 25 August, Sunday

    Time Temperature Precipitation Wind Pressure Humidity
    00:00 +18°C° 0 mm 4 mps 766 mmHg 78%
    01:00 +17°C° 0 mm 4 mps 766 mmHg 80%
    02:00 +17°C° 0 mm 3 mps 766 mmHg 79%
    03:00 +17°C° 0 mm 3 mps 766 mmHg 78%
    04:00 +17°C° 0 mm 3 mps 766 mmHg 77%
    05:00 +18°C° 0 mm 3 mps 766 mmHg 75%
    06:00 +18°C° 0 mm 4 mps 766 mmHg 72%
    07:00 +19°C° 0 mm 4 mps 766 mmHg 70%
    08:00 +21°C° 0 mm 4 mps 766 mmHg 66%
    09:00 +23°C° 0 mm 4 mps 766 mmHg 62%
    10:00 +26°C° 0 mm 4 mps 766 mmHg 57%
    11:00 +27°C° 0 mm 4 mps 766 mmHg 55%
    12:00 +28°C° 0 mm 4 mps 765 mmHg 53%
    13:00 +29°C° 0 mm 4 mps 765 mmHg 51%
    14:00 +29°C° 0 mm 4 mps 765 mmHg 51%
    15:00 +29°C° 0 mm 4 mps 765 mmHg 51%
    16:00 +29°C° 0 mm 5 mps 764 mmHg 52%
    17:00 +27°C° 0 mm 5 mps 765 mmHg 57%
    18:00 +26°C° 0 mm 5 mps 765 mmHg 63%
    19:00 +23°C° 0 mm 4 mps 765 mmHg 69%
    20:00 +22°C° 0 mm 4 mps 765 mmHg 70%
    21:00 +21°C° 0 mm 4 mps 765 mmHg 72%
    22:00 +20°C° 0 mm 4 mps 765 mmHg 73%
    23:00 +20°C° 0 mm 4 mps 765 mmHg 72%

    Tomorrow, 26 August, Monday

    Time Temperature Precipitation Wind Pressure Humidity
    00:00 +20°C° 0 mm 4 mps 765 mmHg 72%
    01:00 +19°C° 0 mm 3 mps 765 mmHg 71%
    02:00 +19°C° 0 mm 3 mps 765 mmHg 73%
    03:00 +19°C° 0 mm 3 mps 764 mmHg 75%
    04:00 +18°C° 0 mm 3 mps 764 mmHg 76%
    05:00 +19°C° 0 mm 3 mps 764 mmHg 76%
    06:00 +20°C° 0 mm 3 mps 764 mmHg 75%
    07:00 +20°C° 0 mm 3 mps 764 mmHg 75%
    08:00 +22°C° 0 mm 3 mps 764 mmHg 70%
    09:00 +25°C° 0 mm 3 mps 764 mmHg 66%
    10:00 +27°C° 0 mm 4 mps 764 mmHg 61%
    11:00 +28°C° 0 mm 4 mps 764 mmHg 58%
    12:00 +29°C° 0 mm 4 mps 764 mmHg 54%
    13:00 +30°C° 0 mm 4 mps 764 mmHg 51%
    14:00 +30°C° 0 mm 4 mps 764 mmHg 51%
    15:00 +30°C° 0 mm 4 mps 763 mmHg 51%
    16:00 +30°C° 0 mm 4 mps 763 mmHg 51%
    17:00 +28°C° 0 mm 4 mps 763 mmHg 59%
    18:00 +26°C° 0 mm 5 mps 763 mmHg 67%
    19:00 +23°C° 0 mm 5 mps 763 mmHg 75%
    20:00 +22°C° 0 mm 4 mps 763 mmHg 76%
    21:00 +21°C° 0 mm 4 mps 763 mmHg 77%
    22:00 +20°C° 0 mm 4 mps 763 mmHg 79%
    23:00 +20°C° 0 mm 3 mps 763 mmHg 79%

    Day after tomorrow, 27 August, Tuesday

    Time Temperature Precipitation Wind Pressure Humidity
    00:00 +20°C° 0 mm 3 mps 763 mmHg 80%
    01:00 +20°C° 0 mm 3 mps 763 mmHg 81%
    02:00 +20°C° 0 mm 3 mps 763 mmHg 82%
    03:00 +20°C° 0 mm 2 mps 763 mmHg 84%
    04:00 +20°C° 0 mm 2 mps 763 mmHg 85%
    05:00 +20°C° 0 mm 3 mps 763 mmHg 83%
    06:00 +21°C° 0 mm 3 mps 763 mmHg 82%
    07:00 +22°C° 0 mm 3 mps 763 mmHg 80%
    08:00 +25°C° 0 mm 3 mps 763 mmHg 73%
    09:00 +27°C° 0 mm 3 mps 763 mmHg 66%
    10:00 +29°C° 0 mm 3 mps 763 mmHg 60%
    11:00 +30°C° 0 mm 3 mps 763 mmHg 56%
    12:00 +30°C° 0 mm 3 mps 763 mmHg 53%
    13:00 +31°C° 0 mm 3 mps 762 mmHg 49%
    14:00 +33°C° 0 mm 3 mps 762 mmHg 49%
    15:00 +33°C° 0 mm 3 mps 762 mmHg 48%
    16:00 +33°C° 0 mm 3 mps 761 mmHg 48%
    17:00 +30°C° 0.2 mm 4 mps 761 mmHg 56%
    18:00 +28°C° 0.2 mm 4 mps 761 mmHg 65%
    19:00 +26°C° 0.2 mm 5 mps 761 mmHg 73%
    20:00 +25°C° 0.5 mm 4 mps 761 mmHg 77%
    21:00 +22°C° 0.5 mm 4 mps 762 mmHg 82%
    22:00 +21°C° 0.5 mm 4 mps 762 mmHg 87%
    23:00 +21°C° 0.1 mm 3 mps 761 mmHg 87%

    28 August, Wednesday

    Time Temperature Precipitation Wind Pressure Humidity
    00:00 +21°C° 0.1 mm 2 mps 761 mmHg 87%
    01:00 +21°C° 0.1 mm 2 mps 761 mmHg 87%
    02:00 +21°C° 0 mm 2 mps 761 mmHg 87%
    03:00 +21°C° 0 mm 2 mps 760 mmHg 88%
    04:00 +20°C° 0 mm 2 mps 760 mmHg 89%
    05:00 +21°C° 0 mm 2 mps 760 mmHg 88%
    06:00 +23°C° 0 mm 2 mps 760 mmHg 86%
    07:00 +23°C° 0 mm 2 mps 760 mmHg 85%
    08:00 +25°C° 0 mm 2 mps 760 mmHg 78%
    09:00 +27°C° 0 mm 3 mps 760 mmHg 72%
    10:00 +28°C° 0 mm 3 mps 760 mmHg 65%
    11:00 +29°C° 0 mm 3 mps 759 mmHg 61%
    12:00 +30°C° 0 mm 3 mps 759 mmHg 57%
    13:00 +31°C° 0 mm 3 mps 759 mmHg 53%
    14:00 +31°C° 0.1 mm 3 mps 758 mmHg 53%
    15:00 +31°C° 0.1 mm 3 mps 758 mmHg 54%
    16:00 +31°C° 0.1 mm 3 mps 758 mmHg 54%
    17:00 +30°C° 0.2 mm 3 mps 757 mmHg 60%
    18:00 +28°C° 0.2 mm 3 mps 757 mmHg 66%
    19:00 +27°C° 0.2 mm 3 mps 757 mmHg 72%
    20:00 +26°C° 0.1 mm 3 mps 757 mmHg 75%
    21:00 +25°C° 0.1 mm 3 mps 757 mmHg 79%
    22:00 +24°C° 0.1 mm 3 mps 757 mmHg 82%
    23:00 +24°C° 0.1 mm 3 mps 757 mmHg 83%

    29 August, Thursday

    Time Temperature Precipitation Wind Pressure Humidity
    00:00 +22°C° 0.1 mm 3 mps 757 mmHg 83%
    01:00 +23°C° 0.1 mm 2 mps 756 mmHg 84%
    02:00 +23°C° 0.6 mm 2 mps 756 mmHg 84%
    03:00 +22°C° 0.6 mm 3 mps 756 mmHg 84%
    04:00 +21°C° 0.6 mm 3 mps 756 mmHg 85%
    05:00 +22°C° 0.2 mm 3 mps 756 mmHg 84%
    06:00 +22°C° 0.2 mm 3 mps 756 mmHg 82%
    07:00 +24°C° 0.2 mm 3 mps 756 mmHg 81%
    08:00 +25°C° 0 mm 3 mps 757 mmHg 75%
    09:00 +27°C° 0 mm 3 mps 757 mmHg 69%
    10:00 +29°C° 0 mm 3 mps 757 mmHg 63%
    11:00 +29°C° 0 mm 3 mps 757 mmHg 58%
    12:00 +30°C° 0 mm 3 mps 758 mmHg 54%
    13:00 +31°C° 0 mm 3 mps 758 mmHg 50%
    14:00 +31°C° 0.1 mm 3 mps 758 mmHg 52%
    15:00 +30°C° 0.1 mm 3 mps 758 mmHg 54%
    16:00 +30°C° 0.1 mm 3 mps 758 mmHg 55%
    17:00 +28°C° 1.2 mm 3 mps 758 mmHg 65%
    18:00 +25°C° 1.2 mm 3 mps 759 mmHg 75%
    19:00 +22°C° 1.2 mm 3 mps 759 mmHg 84%
    20:00 +23°C° 0.5 mm 2 mps 759 mmHg 85%
    21:00 +21°C° 0.5 mm 2 mps 760 mmHg 87%
    22:00 +21°C° 0.5 mm 2 mps 760 mmHg 88%
    23:00 +20°C° 0 mm 2 mps 761 mmHg 89%

    30 August, Friday

    Time Temperature Precipitation Wind Pressure Humidity
    00:00 +20°C° 0 mm 3 mps 761 mmHg 91%
    01:00 +20°C° 0 mm 3 mps 761 mmHg 93%
    02:00 +19°C° 0 mm 3 mps 761 mmHg 93%
    03:00 +19°C° 0 mm 3 mps 761 mmHg 94%
    04:00 +19°C° 0 mm 3 mps 762 mmHg 94%
    05:00 +19°C° 0 mm 4 mps 762 mmHg 94%
    06:00 +19°C° 0 mm 4 mps 762 mmHg 93%
    07:00 +19°C° 0 mm 4 mps 762 mmHg 92%
    08:00 +20°C° 0 mm 4 mps 763 mmHg 89%
    09:00 +20°C° 0 mm 4 mps 763 mmHg 86%
    10:00 +20°C° 0 mm 4 mps 764 mmHg 84%
    11:00 +21°C° 0 mm 4 mps 764 mmHg 79%
    12:00 +21°C° 0 mm 4 mps 764 mmHg 74%
    13:00 +22°C° 0 mm 3 mps 764 mmHg 70%
    14:00 +22°C° 0 mm 3 mps 764 mmHg 69%
    15:00 +22°C° 0 mm 4 mps 764 mmHg 68%
    16:00 +22°C° 0 mm 4 mps 764 mmHg 67%
    17:00 +20°C° 0 mm 3 mps 764 mmHg 71%
    18:00 +19°C° 0 mm 3 mps 764 mmHg 75%
    19:00 +17°C° 0 mm 2 mps 764 mmHg 79%
    20:00 +17°C° 0 mm 2 mps 764 mmHg 78%
    21:00 +16°C° 0 mm 2 mps 764 mmHg 77%
    22:00 +15°C° 0 mm 2 mps 764 mmHg 76%
    23:00 +15°C° 0 mm 2 mps 764 mmHg 78%
    Show more